Location: Asheville, NC
(35.6000°N, 82.5500°W)
Time: 09:22:31

Oscar 11 - Pass Details

Date: 09 March 2018
Orbit: 613 x 626 km, 97.7° (Epoch: 19 March)

Event Time Altitude Azimuth Distance (km) Brightness Sun altitude
Exits shadow 19:33:53 16° 125° (SE) 1,614 8.7 -13.3°
Maximum altitude 19:36:37 31° 72° (ENE) 1,088 7.8 -13.8°
Drops below altitude 10° 19:40:23 10° 10° (N) 1,974 9.6 -14.6°
Sets 19:42:45 0° 0° (N) 2,883 10.6 -15.1°
